User: anonymous   Login
Location: Unspecified
(0.0000°N, 0.0000°E)
Time: 07:19:10
(UTC+00:00)
Language:

GEOS 3 - Orbit

View from above orbital plane
View from above orbital plane
View from above satellite
View from above satellite

Ground track
Ground track

The orbit data is extracted from the following two-line orbital elements,

1  7734U 75027A   18351.01277797 -.00000138  00000-0  18333-4 0  9995
2  7734 114.9944 326.9359 0026053 252.8439 106.9785 14.18630767260918
Epoch (UTC): 17 December 2018 00:18:24
Eccentricity: 0.0026053
inclination: 114.9944°
perigee height: 811 km
apogee height: 849 km
right ascension of ascending node: 326.9359°
argument of perigee: 252.8439°
revolutions per day: 14.18630767
mean anomaly at epoch: 106.9785°
orbit number at epoch: 26091

The dashed part of the orbit path shows where the satellite is in the earth's shadow,  

DLR